Martinsburg, WV

2:37 AM EST on February 23, 2017 (GMT -0500)
Eastern W Va Regional-Shepherd

Weather History for KMRB - October, 2014

Change the Weather History Date:

Saturday, October 18, 2014

  Actual Average Record
Temperature  
Mean Temperature 59 °F 53 °F  
Max Temperature 67 °F 65 °F 87 °F (1928)
Min Temperature 51 °F 41 °F 27 °F (1982)
Degree Days  
Heating Degree Days 6 12  
Month to date heating degree days 98 171  
Since 1 July heating degree days 152 262  
Cooling Degree Days 0 0  
Month to date cooling degree days 3 8  
Year to date cooling degree days 958 893  
Growing Degree Days 8 (Base 50)    
Moisture  
Dew Point 43 °F    
Average Humidity 62    
Maximum Humidity 80    
Minimum Humidity 44    
Precipitation  
Precipitation 0.00 in 0.10 in 2.47 in (1996)
Month to date precipitation 3.11 1.79  
Year to date precipitation 30.03 31.60  
Sea Level Pressure  
Sea Level Pressure 29.75 in    
Wind  
Wind Speed 12 mph (West)    
Max Wind Speed 24 mph    
Max Gust Speed 33 mph    
Visibility 10 miles    
Events      
T = Trace of Precipitation, MM = Missing Value Source: NWS Daily Summary

Daily Weather History Graph

Daily Weather History Graph

Search for Another Location

Airport or City:

Trip Planner

Search our weather history database for the weather conditions in past years. The results will help you decide how hot, cold, wet, or windy it might be!

Date:

Astronomy

Oct. 18, 2014 Rise Set
Actual Time 7:24 AM EDT 6:28 PM EDT
Civil Twilight 6:57 AM EDT 6:55 PM EDT
Nautical Twilight 6:26 AM EDT 7:26 PM EDT
Astronomical Twilight 5:55 AM EDT 7:57 PM EDT
Moon 2:23 AM EDT (10/18) 3:46 PM EDT (10/18)
Length of Visible Light 11h 58m
Length of Day
11h 03m
Waning Crescent, 24% of the Moon is Illuminated
Oct 18
Waning Crescent
Oct 23
New
Oct 30
First Quarter
Nov 6
Full
Nov 14
Last Quarter

Hourly Weather History & Observations

Time (EDT) Temp. Dew Point Humidity Pressure Visibility Wind Dir Wind Speed Gust Speed Precip Events Conditions
12:53 AM 57.9 °F 48.9 °F 72% 29.66 in 10.0 mi South 4.6 mph - N/A   Scattered Clouds
1:53 AM 57.0 °F 48.9 °F 74% 29.65 in 10.0 mi SSW 4.6 mph - N/A   Clear
2:53 AM 57.9 °F 51.1 °F 78% 29.65 in 10.0 mi SSE 4.6 mph - N/A   Overcast
3:53 AM 57.9 °F 50.0 °F 75% 29.63 in 10.0 mi South 3.5 mph - N/A   Overcast
4:53 AM 59.0 °F 50.0 °F 72% 29.62 in 10.0 mi SSW 3.5 mph - N/A   Overcast
5:53 AM 59.0 °F 51.1 °F 75% 29.64 in 10.0 mi WSW 6.9 mph - N/A   Overcast
6:53 AM 64.0 °F 46.0 °F 52% 29.67 in 10.0 mi West 11.5 mph - N/A   Overcast
7:53 AM 62.1 °F 43.0 °F 50% 29.68 in 10.0 mi West 9.2 mph - N/A   Mostly Cloudy
8:53 AM 62.1 °F 44.1 °F 52% 29.71 in 10.0 mi WNW 8.1 mph - N/A   Overcast
9:53 AM 64.9 °F 43.0 °F 45% 29.72 in 10.0 mi West 13.8 mph - N/A   Overcast
10:53 AM 63.0 °F 42.1 °F 46% 29.73 in 10.0 mi WSW 16.1 mph - N/A   Overcast
11:53 AM 63.0 °F 42.1 °F 46% 29.73 in 10.0 mi West 15.0 mph - N/A   Overcast
12:53 PM 63.0 °F 45.0 °F 52% 29.74 in 10.0 mi WNW 15.0 mph - N/A   Mostly Cloudy
1:53 PM 61.0 °F 43.0 °F 52% 29.75 in 10.0 mi West 13.8 mph - N/A   Overcast
2:53 PM 57.9 °F 41.0 °F 53% 29.76 in 10.0 mi NW 15.0 mph - N/A   Overcast
3:53 PM 57.9 °F 37.9 °F 47% 29.79 in 10.0 mi West 12.7 mph - N/A   Overcast
4:53 PM 57.0 °F 37.0 °F 47% 29.81 in 10.0 mi West 11.5 mph - N/A   Scattered Clouds
5:53 PM 55.9 °F 37.0 °F 49% 29.83 in 10.0 mi West 19.6 mph 25.3 mph N/A   Mostly Cloudy
6:53 PM 54.0 °F 37.0 °F 53% 29.84 in 10.0 mi WNW 17.3 mph - N/A   Scattered Clouds
7:53 PM 53.1 °F 37.0 °F 55% 29.86 in 10.0 mi West 13.8 mph - N/A   Mostly Cloudy
8:53 PM 53.1 °F 37.0 °F 55% 29.87 in 10.0 mi WNW 13.8 mph 21.9 mph N/A   Scattered Clouds
9:53 PM 52.0 °F 37.0 °F 57% 29.88 in 10.0 mi WNW 13.8 mph - N/A   Scattered Clouds
10:53 PM 52.0 °F 36.0 °F 54% 29.89 in 10.0 mi WNW 16.1 mph - N/A   Overcast
11:53 PM 53.1 °F 37.0 °F 55% 29.90 in 10.0 mi WNW 11.5 mph - N/A   Overcast